Home   Weather   Vejle   Past weeks

Flag for Denmark Past Weather in Vejle, Denmark — Yesterday and Last 2 Weeks

43 °F

Partly sunny.

Feels Like: 39 °F
Forecast: 42 / 50 °F
Wind: 6 mph from Northwest

Location: Billund Lufthavn

Current Time: Oct 25, 2016 at 3:51:44 PM

Latest Report: Oct 25, 2016 at 3:20 PM

Visibility: N/A

Pressure: 30.24 "Hg

Humidity: 100%

Dew Point: 43 °F

Location of VejleLocation

Past Weather in Vejle — Graph


Vejle Temperature Yesterday

Maximum temperature yesterday: 50 °F (at 1:50 PM)
Minimum temperature yesterday: 36 °F (at 2:20 AM)
Average temperature yesterday: 42 °F

High & Low Weather Summary for the Past Weeks

High55 °F (Oct 18, 1:50 PM)100% (Oct 10, 5:20 PM)30.36 "Hg (Oct 10, 5:20 PM)
Low30 °F (Oct 25, 6:20 AM)62% (Oct 14, 1:50 PM)29.89 "Hg (Oct 19, 12:20 AM)
Average47 °F91%30.12 "Hg
* Reported Oct 10 2:20 PM — Oct 25 2:20 PM, Vejle, Weather by CustomWeather, © 2016

Note: Actual official high and low records may vary slightly from our data, if they occured in-between our weather recording intervals... More about our weather records


Vejle Weather History for the Previous 24 Hours

Scroll right to see more
Time TempWeatherWind HumidityBarometerVisibility
2:20 PM
Tue, Oct 25
41 °FFog.7 mph100%30.24 "Hg2 mi
1:50 PM41 °FFog.7 mph100%30.24 "Hg1 mi
1:20 PM41 °FFog.7 mph100%30.24 "Hg1 mi
12:50 PM39 °FFog.5 mph100%30.24 "Hg0 mi
12:20 PM39 °FFog.3 mph100%30.24 "Hg0 mi
11:50 AM37 °FFog.3 mph100%30.24 "Hg0 mi
11:20 AM37 °FFog.6 mph100%30.21 "Hg0 mi
10:50 AM36 °FFog.6 mph100%30.21 "Hg0 mi
10:20 AM34 °FFog.5 mph100%30.21 "Hg0 mi
9:56 AM34 °FFog.6 mph100%30.21 "Hg1 mi
9:20 AM32 °FIce fog.3 mph100%30.18 "Hg1 mi
8:50 AM30 °FIce fog.1 mph100%30.18 "Hg0 mi
8:20 AM32 °FIce fog.6 mph100%30.18 "Hg0 mi
8:01 AM32 °FIce fog.6 mph100%30.18 "Hg1 mi
7:20 AM30 °FIce fog.7 mph100%30.15 "Hg1 mi
6:50 AM30 °FIce fog.6 mph100%30.15 "Hg0 mi
6:20 AM30 °FIce fog.5 mph100%30.15 "Hg1 mi
5:50 AM32 °FIce fog.5 mph100%30.15 "Hg1 mi
5:20 AM34 °FFog.7 mph100%30.15 "Hg1 mi
4:53 AM32 °FClear.7 mph100%30.15 "Hg1 mi
4:20 AM32 °FIce fog.3 mph100%30.15 "Hg2 mi
3:50 AM34 °FClear.No wind100%30.15 "Hg1 mi
3:20 AM34 °FClear.5 mph100%30.15 "Hg1 mi
2:50 AM34 °FFog.5 mph100%30.15 "Hg1 mi
2:20 AM37 °FFog.2 mph100%30.12 "Hg2 mi
1:50 AM37 °FFog.3 mph100%30.12 "Hg2 mi
1:20 AM37 °FFog.1 mph93%30.12 "Hg2 mi
12:50 AM39 °FFog.No wind93%30.12 "Hg1 mi
12:20 AM39 °FPassing clouds.No wind100%30.12 "Hg5 mi
11:50 PM
Mon, Oct 24
39 °FPassing clouds.3 mph93%30.12 "Hg4 mi
11:20 PM39 °FPassing clouds.6 mph100%30.12 "Hg4 mi
10:50 PM39 °FPassing clouds.5 mph100%30.12 "Hg4 mi
10:20 PM41 °FPassing clouds.7 mph93%30.12 "Hg6 mi
9:50 PM41 °FQuite cool.8 mph93%30.12 "Hg6 mi
9:20 PM41 °FPassing clouds.8 mph93%30.12 "HgN/A
8:50 PM43 °FPassing clouds.8 mph93%30.12 "HgN/A
8:20 PM43 °FPassing clouds.9 mph93%30.12 "HgN/A
7:50 PM45 °FOvercast.12 mph87%30.12 "HgN/A
7:20 PM45 °FPassing clouds.13 mph87%30.12 "HgN/A
6:50 PM45 °FOvercast.13 mph93%30.12 "HgN/A
6:20 PM46 °FOvercast.9 mph87%30.12 "HgN/A
5:50 PM46 °FMore clouds than sun.12 mph87%30.12 "HgN/A
5:20 PM46 °FOvercast.8 mph87%30.09 "HgN/A
4:50 PM46 °FOvercast.7 mph87%30.09 "HgN/A
4:20 PM48 °FPartly sunny.8 mph76%30.09 "HgN/A
3:50 PM48 °FPartly sunny.9 mph82%30.09 "HgN/A
3:20 PM46 °FPartly sunny.7 mph87%30.09 "HgN/A
3:03 PM48 °FPartly sunny.8 mph82%30.12 "HgN/A
Weather by CustomWeather, © 2016

See weather overviewHow to use our weather pages